Location: Julian California
(33.0790°N, 116.6010°W)
Time: 03:03:00
(UTC-07:00)

Aureole 3 Rocket - Pass Details

Date: 12 July 2018
Orbit: 398 x 1744 km, 82.5° (Epoch: 20 July)

Event Time Altitude Azimuth Distance (km) Brightness Sun altitude
Rises 20:32:01 0° 180° (S) 3,473 6.6 -7.2°
Reaches altitude 10° 20:34:49 10° 178° (S) 2,320 5.7 -7.7°
Maximum altitude 20:39:48 70° 96° (E) 649 3.0 -8.6°
Drops below altitude 10° 20:43:29 10° 13° (NNE) 1,726 5.6 -9.2°
Sets 20:45:19 0° 10° (N) 2,509 6.5 -9.5°
